Roseau, MN

3:32 AM CST on January 21, 2018 (GMT -0600)
Roseau Municipal-Billberg

Weather History for KROX - January, 2014

Change the Weather History Date:

Saturday, January 25, 2014

  Actual Average Record
Temperature  
Mean Temperature -4 °F -  
Max Temperature 1 °F 14 °F 42 °F (1973)
Min Temperature -9 °F -7 °F -37 °F (1966)
Degree Days  
Heating Degree Days 69    
Moisture  
Dew Point -12 °F    
Average Humidity 66    
Maximum Humidity 72    
Minimum Humidity 51    
Precipitation  
Precipitation 0.00 in - - ()
Sea Level Pressure  
Sea Level Pressure 29.76 in    
Wind  
Wind Speed 15 mph (West)    
Max Wind Speed 30 mph    
Max Gust Speed 38 mph    
Visibility 8 miles    
Events Snow    
Averages and records for this station are not official NWS values.
T = Trace of Precipitation, MM = Missing Value Source: NWS Daily Summary

Daily Weather History Graph

Daily Weather History Graph

Search for Another Location

Airport or City:

Trip Planner

Search our weather history database for the weather conditions in past years. The results will help you decide how hot, cold, wet, or windy it might be!

Date:

Astronomy

Jan. 25, 2014 Rise Set
Actual Time 8:01 AM CST 5:09 PM CST
Civil Twilight 7:26 AM CST 5:44 PM CST
Nautical Twilight 6:48 AM CST 6:22 PM CST
Astronomical Twilight 6:11 AM CST 6:59 PM CST
Moon 2:32 AM CST (1/25) 12:11 PM CST (1/25)
Length of Visible Light 10h 17m
Length of Day
9h 07m
Waning Crescent, 34% of the Moon is Illuminated
Jan 25
Waning Crescent
Jan 30
New
Feb 6
First Quarter
Feb 14
Full
Feb 22
Last Quarter

Hourly Weather History & Observations

Time (CST) Temp. Windchill Dew Point Humidity Pressure Visibility Wind Dir Wind Speed Gust Speed Precip Events Conditions
12:14 AM 1.4 °F -18.8 °F -7.6 °F 66% 29.75 in 10.0 mi NW 17.3 mph 24.2 mph N/A   Clear
12:34 AM 1.4 °F -18.8 °F -7.6 °F 66% 29.75 in 10.0 mi NW 17.3 mph - N/A   Clear
12:55 AM 1.4 °F -21.0 °F -7.6 °F 66% 29.76 in 7.0 mi NW 21.9 mph - N/A   Clear
1:14 AM 1.4 °F -22.3 °F -7.6 °F 66% 29.77 in 3.0 mi NNW 25.3 mph 32.2 mph N/A   Haze
1:34 AM 1.4 °F -23.9 °F -7.6 °F 66% 29.78 in 1.2 mi NNW 29.9 mph 38.0 mph N/A Snow Light Snow
1:54 AM -0.4 °F -22.8 °F -7.6 °F 72% 29.79 in 2.5 mi NW 20.7 mph 24.2 mph N/A Snow Light Snow
2:14 AM -0.4 °F -23.3 °F -9.4 °F 66% 29.80 in 5.0 mi NW 21.9 mph 29.9 mph N/A   Haze
2:34 AM -0.4 °F -24.7 °F -9.4 °F 66% 29.81 in 2.5 mi NNW 25.3 mph 33.4 mph N/A   Haze
2:54 AM -2.2 °F -27.6 °F -9.4 °F 71% 29.81 in 2.5 mi NNW 26.5 mph 36.8 mph N/A   Haze
3:14 AM -2.2 °F -27.6 °F -9.4 °F 71% 29.82 in 4.0 mi NNW 26.5 mph 31.1 mph N/A   Haze
3:34 AM -2.2 °F -26.2 °F -9.4 °F 71% 29.83 in 2.5 mi NNW 23.0 mph 34.5 mph N/A Snow Light Snow
3:54 AM -2.2 °F -25.2 °F -11.2 °F 66% 29.84 in 5.0 mi NW 20.7 mph 31.1 mph N/A   Haze
4:14 AM -4.0 °F -28.6 °F -11.2 °F 71% 29.84 in 4.0 mi NW 23.0 mph - N/A   Haze
4:34 AM -5.8 °F -27.5 °F -13.0 °F 71% 29.85 in 10.0 mi NW 16.1 mph - N/A   Clear
4:54 AM -5.8 °F -29.4 °F -13.0 °F 71% 29.85 in 10.0 mi NW 19.6 mph - N/A   Clear
5:15 AM -5.8 °F -28.8 °F -14.8 °F 65% 29.86 in 10.0 mi NW 18.4 mph - N/A   Clear
5:34 AM -5.8 °F -29.9 °F -14.8 °F 65% 29.86 in 7.0 mi NW 20.7 mph 25.3 mph N/A   Clear
5:54 AM -5.8 °F -28.8 °F -14.8 °F 65% 29.87 in 10.0 mi NW 18.4 mph - N/A   Clear
6:14 AM -5.8 °F -28.2 °F -14.8 °F 65% 29.87 in 10.0 mi NW 17.3 mph - N/A   Clear
6:35 AM -7.6 °F -28.3 °F -14.8 °F 71% 29.88 in 10.0 mi NW 13.8 mph - N/A   Clear
6:54 AM -7.6 °F -28.3 °F -14.8 °F 71% 29.88 in 10.0 mi NW 13.8 mph - N/A   Clear
7:14 AM -7.6 °F -25.7 °F -14.8 °F 71% 29.89 in 10.0 mi WNW 10.4 mph - N/A   Clear
7:34 AM -7.6 °F -24.6 °F -16.6 °F 65% 29.89 in 10.0 mi WNW 9.2 mph - N/A   Clear
7:54 AM -7.6 °F -24.6 °F -16.6 °F 65% 29.90 in 10.0 mi WNW 9.2 mph - N/A   Clear
8:14 AM -7.6 °F -26.6 °F -16.6 °F 65% 29.90 in 10.0 mi NW 11.5 mph - N/A   Clear
8:34 AM -9.4 °F -27.9 °F -16.6 °F 71% 29.91 in 10.0 mi NW 10.4 mph - N/A   Clear
8:54 AM -9.4 °F -26.8 °F -16.6 °F 71% 29.91 in 10.0 mi WNW 9.2 mph - N/A   Clear
9:14 AM -7.6 °F -22.1 °F -16.6 °F 65% 29.90 in 10.0 mi WNW 6.9 mph - N/A   Clear
9:34 AM -7.6 °F -23.4 °F -16.6 °F 65% 29.90 in 10.0 mi WNW 8.1 mph - N/A   Clear
9:54 AM -7.6 °F -24.6 °F -16.6 °F 65% 29.90 in 10.0 mi West 9.2 mph - N/A   Clear
10:14 AM -7.6 °F -24.6 °F -16.6 °F 65% 29.89 in 10.0 mi West 9.2 mph - N/A   Clear
10:34 AM -7.6 °F -27.5 °F -14.8 °F 71% 29.90 in 10.0 mi West 12.7 mph 18.4 mph N/A   Clear
10:54 AM -7.6 °F -27.5 °F -14.8 °F 71% 29.89 in 10.0 mi West 12.7 mph - N/A   Clear
11:14 AM -5.8 °F -25.2 °F -14.8 °F 65% 29.89 in 10.0 mi West 12.7 mph 17.3 mph N/A   Clear
11:34 AM -5.8 °F -23.4 °F -14.8 °F 65% 29.88 in 10.0 mi West 10.4 mph 17.3 mph N/A   Clear
11:54 AM -5.8 °F -26.0 °F -14.8 °F 65% 29.87 in 10.0 mi West 13.8 mph 17.3 mph N/A   Clear
12:14 PM -5.8 °F -24.4 °F -14.8 °F 65% 29.85 in 10.0 mi West 11.5 mph 18.4 mph N/A   Clear
12:34 PM -5.8 °F -24.4 °F -14.8 °F 65% 29.84 in 10.0 mi West 11.5 mph - N/A   Clear
12:54 PM -4.0 °F -21.2 °F -14.8 °F 60% 29.83 in 10.0 mi West 10.4 mph 16.1 mph N/A   Clear
1:14 PM -4.0 °F -23.0 °F -14.8 °F 60% 29.82 in 10.0 mi West 12.7 mph 17.3 mph N/A   Clear
1:35 PM -2.2 °F -18.0 °F -14.8 °F 55% 29.82 in 10.0 mi West 9.2 mph 17.3 mph N/A   Clear
1:54 PM -4.0 °F -20.2 °F -14.8 °F 60% 29.81 in 10.0 mi West 9.2 mph - N/A   Clear
2:14 PM -2.2 °F -18.9 °F -14.8 °F 55% 29.79 in 10.0 mi West 10.4 mph - N/A   Clear
2:34 PM -2.2 °F -18.0 °F -14.8 °F 55% 29.78 in 10.0 mi West 9.2 mph - N/A   Clear
2:54 PM -2.2 °F -18.0 °F -14.8 °F 55% 29.77 in 10.0 mi West 9.2 mph - N/A   Clear
3:15 PM -2.2 °F -16.8 °F -14.8 °F 55% 29.76 in 10.0 mi West 8.1 mph - N/A   Clear
3:34 PM -2.2 °F -14.2 °F -14.8 °F 55% 29.74 in 10.0 mi West 5.8 mph - N/A   Clear
3:54 PM -2.2 °F -15.6 °F -13.0 °F 60% 29.72 in 10.0 mi SW 6.9 mph - N/A   Clear
4:15 PM -2.2 °F -14.2 °F -13.0 °F 60% 29.72 in 10.0 mi SW 5.8 mph - N/A   Clear
4:34 PM -2.2 °F -15.6 °F -14.8 °F 55% 29.70 in 10.0 mi SW 6.9 mph - N/A   Clear
4:54 PM -0.4 °F -13.4 °F -14.8 °F 51% 29.69 in 10.0 mi SW 6.9 mph - N/A   Scattered Clouds
5:15 PM -2.2 °F -15.6 °F -11.2 °F 66% 29.68 in 10.0 mi SSW 6.9 mph - N/A   Scattered Clouds
5:34 PM -2.2 °F -14.2 °F -11.2 °F 66% 29.67 in 10.0 mi SW 5.8 mph - N/A   Mostly Cloudy
5:54 PM -0.4 °F -12.0 °F -11.2 °F 60% 29.65 in 10.0 mi SW 5.8 mph - N/A   Mostly Cloudy
6:15 PM -0.4 °F - -11.2 °F 60% 29.65 in 10.0 mi Calm Calm - N/A   Overcast
6:34 PM -0.4 °F -8.3 °F -11.2 °F 60% 29.63 in 10.0 mi SW 3.5 mph - N/A   Overcast
6:54 PM -0.4 °F -8.3 °F -11.2 °F 60% 29.62 in 10.0 mi SW 3.5 mph - N/A   Overcast
7:14 PM -0.4 °F -8.3 °F -11.2 °F 60% 29.62 in 10.0 mi SW 3.5 mph - N/A   Overcast
7:34 PM -0.4 °F -8.3 °F -11.2 °F 60% 29.61 in 10.0 mi WSW 3.5 mph - N/A   Overcast
7:54 PM -0.4 °F - -9.4 °F 66% 29.60 in 3.0 mi Calm Calm - N/A Snow Light Snow
8:14 PM -0.4 °F - -7.6 °F 72% 29.60 in 2.0 mi Calm Calm - N/A Snow Light Snow
8:34 PM -0.4 °F -10.4 °F -7.6 °F 72% 29.58 in 1.5 mi South 4.6 mph - N/A Snow Light Snow
8:54 PM -0.4 °F -10.4 °F -7.6 °F 72% 29.57 in 3.0 mi South 4.6 mph - N/A Snow Light Snow
9:15 PM -0.4 °F -10.4 °F -7.6 °F 72% 29.56 in 4.0 mi South 4.6 mph - N/A Snow Light Snow
9:34 PM -0.4 °F -8.3 °F -7.6 °F 72% 29.56 in 4.0 mi South 3.5 mph - N/A Snow Light Snow
9:54 PM -0.4 °F - -7.6 °F 72% 29.55 in 5.0 mi Calm Calm - N/A Snow Light Snow
10:14 PM -0.4 °F - -7.6 °F 72% 29.55 in 4.0 mi Calm Calm - N/A Snow Light Snow
10:34 PM -0.4 °F - -7.6 °F 72% 29.54 in 3.0 mi Calm Calm - N/A Snow Light Snow
10:54 PM -0.4 °F -10.4 °F -7.6 °F 72% 29.52 in 3.0 mi SSE 4.6 mph - N/A Snow Light Snow
11:14 PM -0.4 °F -12.0 °F -7.6 °F 72% 29.50 in 4.0 mi SE 5.8 mph - N/A Snow Light Snow
11:34 PM -0.4 °F -10.4 °F -7.6 °F 72% 29.49 in 4.0 mi ESE 4.6 mph - N/A Snow Light Snow
11:54 PM -0.4 °F -10.4 °F -7.6 °F 72% 29.48 in 5.0 mi SE 4.6 mph - N/A Snow Light Snow